Wind_Speed
36 38 42 42 42 41 37 36 32 30 29 28 24 23 20 17 14 18 17 18 19 19 19 16 15 15 13 12 15 17 15 12 10 8 7 7 5 5 3 1 4 7 9 10 12 13 14 13 13
38 39 42 48 48 45 37 35 33 32 34 29 25 23 26 20 20 18 17 16 18 18 17 17 15 17 14 14 17 18 16 13 11 9 8 6 4 4 2 1 5 7 9 10 11 12 13 13 14
44 43 45 48 52 50 39 35 35 39 35 32 28 26 27 21 21 22 21 18 17 19 18 17 16 17 15 15 18 19 17 15 13 10 8 7 5 3 1 2 4 6 8 10 11 11 11 12 14
47 49 50 50 49 46 42 40 38 42 39 36 32 28 26 26 21 21 22 23 16 18 19 20 20 17 16 15 19 19 18 16 13 11 10 8 5 4 3 4 6 7 8 9 10 12 12 13 15
50 52 54 52 48 44 49 46 40 41 40 40 37 32 29 26 22 24 20 25 22 17 20 21 23 20 18 17 19 18 17 16 14 13 11 8 7 6 5 6 7 8 9 9 11 13 14 14 16
56 55 57 56 48 48 48 48 41 42 41 42 39 36 32 29 25 25 20 21 30 19 19 22 24 24 20 18 19 19 18 17 17 15 12 10 9 9 8 8 9 10 10 10 12 13 13 14 16
59 59 58 55 52 49 47 50 49 42 40 40 42 38 35 32 27 26 25 18 26 19 22 22 26 27 22 20 20 20 20 19 18 16 15 13 12 11 11 10 11 12 11 12 13 13 13 16 18
59 64 62 59 56 51 47 48 51 48 43 42 39 39 39 34 30 25 24 21 24 28 35 31 30 29 25 22 23 21 21 19 20 19 17 16 14 13 13 13 12 12 13 15 15 15 17 19 21
62 64 64 61 59 53 50 50 47 52 47 46 40 41 39 36 32 25 22 26 28 26 28 28 28 30 25 24 24 23 22 21 22 20 19 18 17 16 15 15 13 13 15 14 17 19 20 21 24
68 66 61 61 60 55 55 50 49 51 51 46 41 39 38 37 32 28 27 29 29 30 30 30 29 27 26 24 25 25 25 23 22 22 20 20 18 17 18 16 15 15 15 16 18 19 21 24 26
68 69 64 64 65 56 56 53 54 49 55 48 39 38 39 40 33 31 34 32 33 36 30 29 30 25 24 26 26 25 25 23 22 21 19 20 19 20 19 18 17 16 17 17 20 21 24 25 27
69 71 70 69 59 59 58 56 56 53 52 53 52 44 39 37 32 35 40 34 29 26 26 26 26 25 24 25 25 22 20 20 18 18 19 20 21 21 20 20 18 18 20 21 23 25 27 28 30
72 71 70 66 61 59 61 61 55 55 53 57 52 45 41 39 35 37 39 39 35 29 27 24 25 25 25 25 23 20 20 18 18 19 20 21 21 21 22 22 23 25 25 25 26 28 30 30 32
72 72 70 66 63 58 61 60 58 51 54 52 56 49 44 45 37 38 35 39 35 33 26 19 24 25 24 23 22 21 20 18 18 19 20 21 22 24 26 29 31 29 30 31 31 31 34 34 34
70 69 69 68 64 60 61 64 59 52 57 56 56 52 47 45 45 40 42 37 38 38 36 25 31 30 26 25 24 22 21 20 21 21 23 25 26 28 31 34 35 34 35 37 39 40 37 37 36
55 67 68 65 64 62 60 61 60 55 54 55 54 56 50 46 46 48 45 39 40 36 35 35 31 32 30 26 26 25 25 25 24 24 25 27 30 32 37 40 42 41 44 46 46 44 42 36 35
38 56 63 62 62 62 60 62 63 57 57 55 56 56 53 44 46 49 49 45 44 40 37 36 34 33 31 30 31 30 28 26 25 25 28 30 34 36 40 44 46 50 54 53 51 49 51 44 36
27 41 54 57 59 61 64 61 62 58 60 54 56 54 57 50 50 52 49 46 43 43 46 39 36 37 33 33 31 31 30 27 25 27 31 33 37 41 46 49 52 57 63 63 56 51 44 40 23
25 31 45 52 59 60 64 64 60 58 59 56 56 56 60 55 49 47 47 44 39 43 44 40 37 36 34 32 31 28 25 26 29 30 34 37 42 44 48 52 55 61 59 51 32 17 13 14 20
26 27 33 44 54 57 64 65 61 60 60 60 56 57 58 60 56 46 44 42 44 45 44 40 40 36 33 31 30 28 27 28 31 35 37 39 42 42 37 31 30 39 28 26 17 21 22 25 27
29 29 31 37 46 55 62 64 63 57 59 60 59 58 58 62 57 50 48 47 46 45 45 44 36 34 34 35 33 32 34 32 33 36 35 39 40 32 31 24 21 8 10 15 21 24 25 27 27
28 30 31 34 42 47 60 58 62 57 57 59 59 57 57 61 57 55 48 49 49 53 46 41 41 40 36 36 25 24 27 29 32 32 31 35 22 16 21 14 16 17 15 18 22 25 24 23 24
22 29 32 33 38 45 56 59 60 60 58 59 60 56 58 60 58 55 53 49 51 42 38 40 41 38 38 27 24 25 26 29 27 24 25 18 13 9 12 12 13 17 19 20 21 21 20 24 27
17 20 29 34 36 43 52 57 60 65 58 53 56 56 56 58 58 55 53 54 47 40 38 42 43 32 27 23 25 29 27 24 21 21 20 13 10 9 9 11 15 19 19 19 19 18 22 25 30
19 18 19 27 37 39 44 56 56 57 57 52 54 56 55 58 60 58 58 56 50 47 43 40 27 19 24 27 28 26 22 17 17 17 12 9 10 8 10 14 18 19 19 18 16 20 24 29 32
24 21 14 22 32 37 44 55 59 62 60 56 53 56 58 60 61 64 61 60 55 46 34 24 29 31 30 25 27 24 21 15 14 18 10 9 9 10 13 17 19 18 16 15 19 22 27 31 33
26 27 25 25 30 27 34 50 58 64 64 63 58 59 60 69 68 63 62 59 58 49 34 31 33 35 31 26 26 22 17 14 16 14 10 8 8 10 15 18 17 16 16 19 22 25 30 31 29
26 29 28 26 27 26 29 48 56 64 66 64 61 61 61 66 64 63 60 57 54 51 37 31 33 35 29 28 24 20 16 16 15 12 11 9 10 12 17 17 17 16 18 21 24 26 27 25 28
25 28 30 30 31 26 32 39 52 64 68 66 61 60 60 62 66 64 61 56 51 43 34 33 38 33 29 27 22 18 18 14 14 14 10 10 12 14 16 16 16 16 17 20 23 25 23 25 29
29 36 37 36 34 36 31 29 43 68 71 66 60 60 60 60 64 59 55 52 44 38 34 35 35 31 29 24 19 19 14 15 14 13 10 11 13 13 14 15 16 15 17 22 24 23 23 26 27
Wind_Direction
230 230 229 226 227 224 222 220 218 223 222 218 215 213 207 217 217 218 202 201 200 197 193 189 182 177 176 178 188 190 189 185 180 173 162 159 148 138 126 44 355 358 1 3 2 6 7 4 357
232 231 230 228 226 224 220 221 217 223 227 222 218 210 208 210 217 211 215 217 211 202 201 195 188 180 184 183 192 196 196 195 197 189 181 177 161 159 142 356 343 347 345 347 351 354 352 349 342
232 232 231 230 226 222 218 222 217 221 227 225 222 214 213 214 221 222 222 220 211 212 205 209 193 190 187 191 195 200 202 199 200 195 194 195 173 175 201 299 316 324 329 332 332 339 340 336 335
233 231 233 232 230 223 219 221 219 220 222 227 223 223 218 220 218 216 224 220 216 218 215 211 200 195 194 194 199 203 207 208 208 205 204 205 191 203 242 277 295 305 314 317 323 325 325 326 329
234 232 232 232 228 224 219 218 220 221 219 224 224 223 222 223 218 215 226 218 216 232 217 218 212 194 198 200 202 207 214 217 219 216 210 210 211 227 253 271 286 295 300 307 310 311 315 321 322
232 232 232 233 228 225 220 219 216 223 220 222 223 223 223 225 218 215 224 218 221 238 227 218 221 202 196 205 206 209 219 222 224 223 218 212 223 235 246 262 275 286 294 297 297 298 307 310 316
233 230 231 234 230 225 220 219 215 222 223 221 222 221 221 225 224 218 225 234 215 241 247 217 223 213 199 207 211 213 222 225 228 228 226 222 226 235 246 261 272 279 283 284 286 295 303 307 317
232 231 228 228 228 224 221 221 217 217 223 223 220 218 219 219 224 223 223 230 222 234 226 221 213 217 201 206 214 215 223 229 232 230 230 233 234 241 248 257 267 276 281 284 287 296 302 310 318
232 231 229 227 228 225 222 219 218 215 217 223 219 215 218 217 215 216 210 223 220 211 215 207 208 207 205 208 214 217 220 227 233 233 233 234 236 242 253 259 263 271 279 286 297 300 307 313 316
232 230 228 230 228 224 222 219 218 216 215 220 221 218 213 219 211 207 208 207 204 204 206 202 202 204 204 209 217 218 222 225 232 235 236 240 244 250 255 262 264 270 274 284 289 297 303 309 312
228 230 228 228 225 221 222 217 219 214 213 214 216 217 213 217 212 208 206 204 205 207 199 204 200 200 206 212 217 221 225 229 235 244 250 254 257 259 262 264 266 268 272 276 284 291 298 302 307
226 226 227 225 224 220 220 218 218 214 212 209 214 216 210 212 209 205 206 201 195 197 204 201 202 200 208 216 221 226 234 240 247 254 257 258 260 264 267 267 265 264 267 273 282 288 293 298 303
223 224 225 224 224 221 218 218 216 214 212 210 211 211 203 201 203 206 206 205 195 192 201 205 208 207 207 216 222 226 233 243 249 254 259 259 265 266 266 264 265 261 266 270 276 283 288 293 296
221 219 221 221 220 219 217 219 216 213 213 209 207 209 204 202 196 202 210 209 205 200 203 206 220 212 213 217 223 228 237 247 251 250 253 259 264 265 264 271 269 269 268 271 273 275 276 279 286
219 217 220 218 217 217 217 216 214 212 212 208 206 205 206 204 198 206 211 210 203 213 225 213 217 215 214 219 225 232 239 243 244 247 255 261 268 271 276 273 271 266 265 263 264 266 268 276 275
223 216 217 216 214 213 216 210 215 210 211 209 206 202 202 201 202 207 212 216 214 215 212 209 208 214 216 220 228 233 238 242 247 253 262 270 276 276 280 280 273 267 264 263 265 271 273 275 282
227 219 217 215 214 212 213 212 216 205 209 207 207 200 201 199 201 206 213 217 221 220 210 206 209 218 215 219 227 233 238 246 251 259 268 273 276 279 279 280 280 278 276 275 272 275 280 280 282
221 218 217 213 211 209 212 212 213 208 210 203 205 201 199 197 202 206 209 213 224 228 215 213 217 218 222 227 234 243 248 254 265 270 270 274 280 280 281 280 282 284 286 287 279 283 302 265 326
222 215 217 215 210 206 209 210 209 208 205 202 202 202 200 198 200 198 204 212 220 216 211 214 218 224 228 234 240 248 263 274 276 278 279 283 282 283 286 295 294 285 296 319 280 346 332 318 319
221 214 215 215 212 207 208 209 209 206 206 203 200 201 200 202 203 203 208 212 214 213 215 217 220 223 226 233 238 249 267 279 280 278 280 280 283 286 311 309 327 302 281 326 343 346 339 337 323
222 218 215 211 210 207 209 208 207 208 206 204 201 198 198 202 204 204 211 212 213 224 223 219 216 221 225 231 243 259 267 272 279 279 280 281 287 290 305 322 340 348 28 336 346 332 328 327 328
219 219 216 214 208 206 208 206 208 208 207 203 203 199 198 202 201 204 210 212 220 220 221 214 221 228 225 233 253 268 270 272 278 281 291 287 318 284 290 335 339 339 346 341 330 320 328 332 335
212 218 215 213 210 209 205 206 202 205 206 202 201 198 196 199 201 205 209 214 222 225 215 210 218 227 228 246 268 267 267 272 278 292 298 315 326 298 308 327 342 332 343 333 322 331 344 337 331
220 218 219 213 211 212 206 204 204 205 204 205 201 198 196 197 198 203 209 213 222 227 231 216 234 223 262 265 263 264 268 273 289 287 296 312 310 311 319 348 332 331 333 335 335 341 339 330 331
218 227 227 222 213 206 211 206 198 202 205 205 203 199 195 195 197 203 209 214 217 225 224 237 248 251 248 254 257 260 265 275 278 292 295 310 301 324 336 334 335 333 335 337 340 343 338 337 334
214 212 204 232 222 210 215 208 197 200 199 202 200 200 195 191 195 205 211 216 217 222 229 237 249 248 250 246 247 255 262 271 273 287 279 297 316 326 330 338 334 332 335 339 343 340 340 338 341
215 216 216 222 213 206 221 206 194 199 203 200 198 196 194 192 198 203 210 217 222 226 229 232 235 238 241 244 249 256 256 264 274 269 283 274 289 318 336 334 331 337 340 339 339 340 342 342 338
216 218 218 224 210 215 209 201 195 196 201 201 198 194 193 191 196 204 209 214 219 225 225 224 231 235 237 240 249 259 257 255 267 278 267 276 310 328 338 329 330 333 338 340 342 342 340 339 340
229 229 227 226 217 204 207 210 189 192 203 202 200 193 191 191 197 204 209 213 218 217 217 219 229 229 234 239 247 253 250 259 267 272 274 296 316 328 332 325 323 334 339 338 341 347 345 345 346
220 229 227 224 222 205 193 207 197 190 200 201 196 192 190 190 199 206 209 211 212 210 211 222 228 229 231 237 245 247 254 265 269 269 277 295 311 321 324 316 321 331 333 340 348 351 349 348 352
Height
5858 5861 5865 5869 5873 5873 5879 5883 5886 5889 5891 5892 5895 5899 5901 5904 5905 5908 5909 5911 5912 5915 5917 5918 5918 5920 5920 5922 5924 5924 5925 5925 5925 5926 5925 5925 5925 5924 5924 5925 5925 5924 5924 5923 5922 5920 5918 5917 5915
5852 5854 5857 5860 5863 5867 5876 5880 5883 5885 5885 5890 5893 5896 5899 5901 5901 5905 5907 5909 5911 5913 5916 5917 5918 5919 5920 5920 5923 5924 5923 5924 5924 5925 5925 5925 5925 5925 5924 5925 5925 5924 5924 5923 5921 5919 5917 5915 5913
5844 5846 5848 5849 5853 5859 5872 5876 5880 5879 5883 5886 5890 5893 5895 5898 5899 5902 5904 5906 5908 5911 5914 5916 5917 5918 5919 5920 5922 5923 5923 5923 5923 5924 5925 5925 5924 5925 5925 5924 5924 5923 5922 5921 5920 5918 5915 5913 5912
5835 5837 5838 5840 5847 5862 5866 5870 5871 5873 5878 5881 5886 5890 5893 5894 5897 5899 5901 5903 5906 5908 5911 5913 5915 5916 5918 5919 5921 5922 5922 5923 5923 5923 5923 5923 5922 5923 5923 5923 5923 5922 5921 5920 5919 5917 5915 5913 5911
5824 5827 5828 5831 5842 5852 5857 5862 5865 5868 5873 5877 5881 5886 5889 5891 5894 5897 5898 5900 5903 5906 5908 5911 5913 5913 5916 5918 5919 5921 5922 5922 5922 5922 5921 5921 5921 5922 5922 5922 5922 5921 5920 5919 5917 5916 5914 5913 5911
5812 5817 5819 5823 5835 5842 5849 5855 5861 5862 5867 5871 5877 5881 5884 5888 5890 5894 5896 5898 5901 5903 5905 5908 5911 5911 5913 5916 5918 5919 5920 5920 5920 5920 5919 5918 5919 5920 5920 5920 5920 5920 5919 5917 5915 5913 5912 5911 5910
5800 5805 5811 5818 5826 5832 5841 5846 5852 5858 5862 5867 5870 5876 5880 5883 5887 5890 5892 5895 5897 5900 5902 5905 5909 5910 5911 5914 5916 5916 5917 5917 5917 5917 5917 5917 5917 5917 5918 5918 5918 5917 5916 5915 5913 5912 5911 5910 5908
5787 5790 5797 5807 5814 5825 5832 5837 5845 5850 5855 5858 5866 5871 5874 5878 5883 5887 5890 5892 5893 5897 5899 5902 5904 5907 5907 5910 5913 5913 5915 5915 5915 5915 5916 5916 5916 5916 5916 5916 5915 5915 5914 5913 5912 5912 5910 5909 5907
5775 5777 5787 5798 5805 5817 5821 5828 5835 5842 5847 5850 5859 5863 5868 5873 5878 5882 5886 5888 5890 5892 5896 5899 5901 5903 5905 5907 5910 5911 5912 5913 5914 5913 5914 5914 5914 5914 5914 5913 5912 5912 5912 5912 5912 5911 5909 5906 5904
5758 5766 5778 5787 5795 5805 5811 5819 5827 5833 5841 5845 5852 5858 5865 5868 5874 5878 5881 5884 5886 5889 5892 5895 5898 5900 5901 5904 5907 5908 5909 5910 5912 5911 5912 5913 5912 5912 5911 5911 5910 5909 5909 5908 5907 5906 5904 5903 5901
5746 5755 5765 5770 5780 5794 5800 5808 5815 5825 5832 5840 5847 5853 5858 5862 5869 5873 5878 5881 5883 5885 5887 5891 5894 5896 5898 5901 5904 5905 5908 5908 5909 5911 5911 5911 5910 5909 5908 5908 5908 5907 5906 5905 5904 5902 5900 5898 5897
5729 5737 5745 5755 5771 5781 5790 5799 5805 5817 5825 5830 5832 5843 5852 5858 5863 5868 5872 5877 5881 5883 5886 5888 5890 5892 5894 5898 5901 5903 5906 5907 5908 5909 5908 5907 5906 5906 5905 5905 5904 5904 5903 5902 5900 5898 5896 5893 5891
5714 5722 5731 5747 5758 5771 5778 5786 5798 5806 5813 5822 5829 5837 5846 5853 5859 5863 5867 5872 5876 5879 5884 5887 5888 5889 5891 5895 5898 5900 5902 5904 5904 5904 5904 5903 5903 5902 5901 5901 5900 5899 5898 5897 5893 5891 5889 5887 5885
5697 5706 5719 5733 5746 5758 5768 5776 5787 5801 5805 5814 5822 5830 5839 5847 5854 5859 5864 5868 5872 5876 5879 5882 5884 5886 5889 5893 5895 5897 5899 5900 5900 5899 5900 5899 5899 5898 5896 5896 5895 5895 5895 5892 5888 5885 5881 5879 5878
5685 5698 5708 5720 5735 5747 5757 5765 5781 5790 5794 5804 5814 5823 5832 5840 5848 5854 5858 5864 5867 5869 5874 5877 5879 5882 5886 5889 5892 5893 5895 5895 5895 5895 5896 5896 5896 5895 5894 5892 5892 5890 5888 5884 5878 5874 5873 5872 5870
5675 5685 5695 5711 5723 5738 5747 5764 5766 5777 5787 5798 5805 5816 5826 5834 5842 5847 5852 5858 5862 5867 5869 5872 5875 5879 5882 5885 5887 5888 5889 5890 5891 5892 5894 5894 5894 5893 5892 5888 5886 5883 5880 5876 5873 5870 5867 5866 5862
5669 5679 5688 5701 5714 5728 5739 5747 5753 5766 5776 5788 5798 5810 5820 5829 5836 5841 5847 5853 5858 5863 5866 5868 5870 5873 5877 5879 5882 5884 5885 5888 5889 5891 5891 5891 5890 5889 5886 5884 5882 5878 5873 5870 5867 5863 5863 5859 5859
5663 5670 5679 5689 5704 5716 5725 5736 5744 5758 5768 5780 5791 5803 5813 5822 5829 5834 5842 5847 5853 5857 5860 5864 5867 5871 5874 5878 5880 5882 5883 5886 5888 5887 5887 5887 5885 5883 5881 5877 5875 5871 5866 5861 5858 5860 5852 5852 5853
5661 5666 5672 5680 5689 5703 5713 5724 5736 5749 5758 5770 5781 5794 5806 5815 5823 5828 5835 5842 5847 5851 5855 5860 5864 5869 5872 5876 5878 5880 5883 5884 5883 5883 5883 5881 5879 5878 5875 5873 5867 5860 5861 5850 5852 5854 5849 5848 5845
5657 5662 5667 5676 5684 5695 5704 5717 5728 5738 5751 5762 5775 5788 5799 5808 5818 5825 5832 5838 5842 5846 5852 5858 5862 5867 5871 5874 5876 5877 5878 5878 5878 5877 5876 5874 5873 5872 5871 5865 5855 5848 5852 5855 5851 5848 5844 5838 5837
5652 5656 5661 5668 5674 5687 5697 5708 5723 5734 5743 5755 5766 5779 5792 5804 5813 5822 5828 5833 5837 5843 5850 5856 5860 5862 5867 5870 5871 5872 5872 5872 5871 5871 5870 5868 5865 5866 5865 5859 5852 5847 5841 5847 5843 5842 5837 5833 5832
5648 5650 5656 5662 5670 5681 5688 5705 5717 5726 5737 5749 5762 5776 5787 5798 5807 5816 5823 5827 5833 5838 5845 5850 5855 5858 5862 5864 5867 5868 5867 5866 5866 5866 5865 5861 5860 5859 5861 5854 5852 5851 5848 5842 5841 5839 5833 5830 5825
5642 5647 5652 5657 5664 5670 5682 5694 5709 5717 5727 5741 5756 5770 5781 5792 5803 5810 5816 5822 5827 5830 5838 5844 5848 5851 5856 5859 5861 5862 5862 5862 5862 5862 5861 5857 5855 5855 5855 5853 5850 5849 5840 5838 5839 5835 5828 5825 5821
5638 5643 5648 5653 5659 5664 5674 5689 5698 5708 5725 5741 5754 5765 5776 5787 5797 5805 5812 5818 5821 5826 5833 5839 5843 5847 5852 5855 5856 5857 5858 5859 5858 5857 5856 5854 5853 5853 5852 5847 5847 5844 5838 5836 5833 5829 5824 5821 5816
5633 5637 5643 5649 5653 5666 5671 5674 5692 5714 5725 5737 5749 5761 5772 5782 5791 5797 5805 5812 5818 5825 5830 5835 5836 5841 5846 5849 5851 5853 5854 5854 5854 5852 5851 5851 5851 5848 5847 5846 5843 5839 5836 5833 5829 5823 5820 5816 5812
5626 5632 5640 5643 5651 5662 5663 5668 5689 5703 5712 5727 5741 5754 5765 5776 5784 5791 5799 5806 5814 5821 5824 5831 5835 5836 5841 5844 5847 5848 5849 5850 5848 5848 5848 5847 5846 5846 5845 5843 5838 5836 5833 5829 5823 5819 5816 5811 5805
5621 5626 5631 5636 5643 5650 5658 5670 5683 5690 5704 5715 5729 5743 5756 5764 5774 5785 5792 5800 5809 5816 5824 5829 5830 5832 5837 5840 5843 5844 5845 5844 5845 5845 5845 5846 5846 5844 5841 5838 5835 5831 5828 5824 5819 5815 5809 5805 5802
5615 5619 5626 5632 5639 5647 5656 5662 5673 5685 5694 5709 5720 5734 5748 5761 5772 5780 5788 5798 5806 5814 5823 5825 5826 5829 5834 5837 5839 5840 5841 5841 5841 5842 5844 5843 5841 5839 5836 5834 5831 5828 5824 5819 5815 5812 5808 5803 5797
5610 5615 5621 5627 5633 5642 5653 5659 5672 5681 5691 5703 5717 5732 5744 5758 5768 5775 5783 5794 5802 5811 5817 5821 5822 5826 5830 5832 5835 5836 5836 5836 5838 5839 5839 5838 5836 5835 5833 5831 5828 5825 5821 5817 5813 5808 5803 5798 5793
5604 5607 5612 5618 5627 5636 5646 5657 5666 5676 5684 5701 5716 5729 5741 5754 5762 5770 5782 5790 5799 5808 5813 5814 5817 5821 5825 5828 5831 5831 5832 5832 5833 5835 5834 5834 5833 5831 5829 5826 5824 5821 5818 5813 5808 5803 5799 5795 5789